sat.trackr.live / text

‹ back to catalog

HULIANWANG DIGUI-145

NORAD 67443 · 2026-007J

PAYLOAD ACTIVE UNKNOWN

§ Identity

Operator
Country
PRC
Launch date
2026-01-13
Launch site
WSC
Launch vehicle
Mass (kg)
RCS (m²)

External: N2YO · Heavens-Above · Gunter

§ Orbital elements

Epoch: 2026-09-20T19:37:14.688768Z

Period
108.33 min
Inclination
50.0082°
Eccentricity
0.0000386
Mean motion
13.29329752 rev/d
Perigee alt
1,149.0 km
Apogee alt
1,149.6 km
Semi-major
7,527.4 km
B*
4.1764e-5
RAAN
102.5651°
Arg perigee
36.9171°
Mean anomaly
323.1728°
Rev number
3,351

§ Raw data

HULIANWANG DIGUI-1451 67443U 26007J   26263.81753112 -.00000105  00000+0  41764-4 0  99982 67443  50.0082 102.5651 0000386  36.9171 323.1728 13.29329752 33516

JSON: /api/v1/satellites/67443 · /tle

For live sub-satellite position, see the globe view (requires WebGL).

§ Visibility from observer

Set your observer location to see the next 7 days of passes ≥ 10°. The values pass through the URL so the page stays shareable.

No JS? Fill the form by hand. The geolocation button needs JavaScript.